sat.trackr.live / text

‹ back to catalog

O3B FM20

NORAD 44112 · 2019-020A

PAYLOAD ACTIVE UNKNOWN

§ Identity

Operator
Country
O3B
Launch date
2019-04-04
Launch site
FRGUI
Launch vehicle
Mass (kg)
RCS (m²)

Purposes: comms

External: N2YO · Heavens-Above · Gunter

§ Orbital elements

Epoch: 2026-09-19T23:02:32.006688Z

Period
287.93 min
Inclination
0.0542°
Eccentricity
0.0002233
Mean motion
5.00115754 rev/d
Perigee alt
8,062.7 km
Apogee alt
8,069.1 km
Semi-major
14,444.0 km
B*
0.0000e+0
RAAN
353.3399°
Arg perigee
184.2250°
Mean anomaly
182.4385°
Rev number
13,631

§ Raw data

O3B FM201 44112U 19020A   26262.96009267 -.00000027  00000+0  00000+0 0  99992 44112   0.0542 353.3399 0002233 184.2250 182.4385  5.00115754136315

JSON: /api/v1/satellites/44112 · /tle

For live sub-satellite position, see the globe view (requires WebGL).

§ Visibility from observer

Set your observer location to see the next 7 days of passes ≥ 10°. The values pass through the URL so the page stays shareable.

No JS? Fill the form by hand. The geolocation button needs JavaScript.